EHI
0 0 0 0 0 0 0 0 0 0 0 0 0 0 0 0 0 0 0 0 0 0 0 0 0 0 0 0 1 2 2 3 5 5 4 1 0 0 0 0 0 0 0
0 0 0 0 0 0 0 0 0 0 0 0 0 0 0 0 0 0 0 0 0 0 0 0 0 0 1 1 0 1 1 3 5 6 4 2 0 0 0 0 0 0 0
0 0 0 0 0 0 0 0 0 0 0 0 0 0 0 0 0 0 0 0 0 0 0 0 0 0 1 1 0 0 1 3 5 6 4 2 0 0 0 0 0 0 0
0 0 0 0 0 0 0 0 0 0 0 0 0 0 0 0 0 0 0 0 0 0 0 0 0 0 1 1 0 0 0 2 4 5 4 2 1 0 0 0 0 0 0
0 0 0 0 0 0 0 0 0 0 0 0 0 0 0 0 0 0 0 0 0 0 0 0 0 0 0 0 0 0 0 0 2 3 3 2 2 1 0 0 0 0 0
0 0 0 0 0 0 0 0 0 0 0 0 0 0 0 0 0 0 0 0 0 0 0 0 0 0 0 0 0 0 0 0 0 1 1 2 2 1 0 0 0 0 0
0 0 0 0 0 0 0 0 0 0 0 0 0 0 0 0 0 0 0 0 0 0 0 0 0 0 0 0 0 0 0 0 0 0 0 1 1 1 0 0 0 0 0
0 0 0 0 0 0 0 0 0 0 0 0 0 0 0 0 0 0 0 0 0 0 0 0 0 0 0 0 0 0 0 0 0 0 0 0 1 1 0 0 0 0 0
0 0 0 0 0 0 0 0 0 0 0 0 0 0 0 0 0 0 0 0 0 0 0 0 0 0 0 0 0 0 0 0 0 0 0 0 1 1 0 0 0 0 0
0 0 0 0 0 0 0 0 0 0 0 0 0 0 0 0 0 0 0 0 0 0 0 0 0 0 0 0 0 0 0 0 0 0 0 0 0 0 0 0 0 0 0
0 0 0 0 0 0 0 0 0 0 0 0 0 0 0 0 0 0 0 0 0 0 0 0 0 0 0 0 0 0 0 0 0 0 0 0 0 0 0 0 0 0 0
0 0 0 0 0 0 0 0 0 0 0 0 0 0 0 0 0 0 0 0 0 0 0 0 0 0 0 0 0 0 0 0 0 0 0 0 0 0 0 0 0 0 0
0 0 0 0 0 0 0 0 0 0 0 0 0 0 0 0 0 0 0 0 0 0 0 0 0 0 0 0 0 0 0 0 0 0 0 0 0 0 0 0 0 0 0
0 0 0 0 0 0 0 0 0 0 0 0 0 0 0 0 0 0 0 0 0 0 0 0 0 0 0 0 0 0 0 0 0 0 0 0 0 0 0 0 0 0 0
0 0 0 0 0 0 0 0 0 0 0 0 0 0 0 0 0 0 0 0 0 0 0 0 0 0 0 0 0 0 0 0 0 0 0 0 0 0 0 0 0 0 0
0 0 0 0 0 0 0 0 0 0 0 0 0 0 0 0 0 0 0 0 0 0 0 0 0 0 0 0 0 0 0 0 0 0 0 0 0 0 0 0 0 0 0
0 0 0 0 0 0 0 0 0 0 0 0 0 0 0 0 0 0 0 0 0 0 0 0 0 0 0 0 0 0 0 0 0 0 0 0 0 0 0 0 0 0 0
0 0 0 0 0 0 0 0 0 0 0 0 0 0 0 0 0 0 0 0 0 0 0 0 0 0 0 0 0 0 0 0 0 0 0 0 0 0 0 0 0 0 0
0 0 0 0 0 0 0 0 0 0 0 0 0 0 0 0 0 0 0 0 0 0 0 0 0 0 0 0 0 0 0 0 0 0 0 0 0 0 0 0 0 0 0
0 0 0 0 0 0 0 0 0 0 0 0 0 0 0 0 0 0 0 0 0 0 0 0 0 0 0 0 0 0 0 0 0 0 0 0 0 0 0 0 0 0 0
0 0 0 0 0 0 0 0 0 0 0 0 0 0 0 0 0 0 0 0 0 0 0 0 0 0 0 0 0 0 0 0 0 0 0 0 0 0 0 0 0 0 0
0 0 0 0 0 0 0 0 0 0 0 0 0 0 0 0 0 0 0 0 0 0 0 0 0 0 0 0 0 0 0 0 0 0 0 0 0 0 0 0 0 0 0
0 0 0 0 0 0 0 0 0 0 0 0 0 0 0 0 0 0 0 0 0 0 0 0 0 0 0 0 0 0 0 0 0 0 0 0 0 0 0 0 0 0 0
0 0 0 0 0 0 0 0 0 0 0 0 0 0 0 0 0 0 0 0 0 0 0 0 0 0 0 0 0 0 0 0 0 0 0 0 0 0 0 0 0 0 0
0 0 0 0 0 0 0 0 0 0 0 0 0 0 0 0 0 0 0 0 0 0 0 0 0 0 0 0 0 0 0 0 0 0 0 0 0 0 0 0 0 0 0
0 0 0 0 0 0 0 0 0 0 0 0 0 0 0 0 0 0 0 0 0 0 0 0 0 0 0 0 0 0 0 0 0 0 0 0 0 0 0 0 0 0 0
Wind_Speed
2 2 2 2 2 2 2 2 2 3 2 2 2 2 2 3 3 3 3 8 9 11 12 12 12 13 13 13 13 13 12 12 11 10 9 9 8 7 7 6 5 5 5
3 3 3 3 3 3 3 3 3 3 3 3 3 3 3 3 3 3 3 5 8 10 12 13 13 13 13 13 13 13 13 13 12 11 11 10 9 9 8 7 6 6 6
4 4 3 3 4 4 4 3 3 3 3 2 3 3 3 3 3 4 4 3 4 7 10 12 13 13 13 13 14 14 14 14 13 12 12 11 10 10 9 8 8 7 7
5 4 4 4 4 4 4 3 4 3 3 3 3 3 3 3 4 4 4 3 3 3 6 10 12 13 14 14 14 14 14 14 14 13 13 12 12 11 10 9 9 8 8
5 4 4 4 4 4 4 4 4 4 3 3 3 2 2 3 4 4 4 5 4 4 3 7 10 12 13 14 14 14 14 14 15 15 14 14 13 12 11 11 10 9 9
5 4 4 5 4 4 4 4 4 4 4 3 2 2 2 3 3 4 5 4 4 5 4 5 5 7 11 13 14 14 14 14 15 15 15 15 14 13 12 12 11 10 9
5 5 5 5 5 5 6 5 4 4 3 3 1 1 2 2 3 3 3 3 4 5 4 5 4 3 4 10 13 14 15 15 15 15 15 16 15 14 13 13 12 11 10
6 5 5 5 5 5 6 6 4 3 3 3 3 1 1 2 2 3 3 4 5 4 4 5 4 4 4 3 7 12 14 15 15 15 15 15 16 15 15 13 12 11 10
6 5 6 5 5 5 6 6 6 5 4 3 4 3 2 3 2 2 3 3 4 4 4 4 5 5 5 4 4 8 12 14 15 15 14 14 15 16 15 13 12 11 10
5 6 6 5 6 5 6 6 6 5 6 5 3 2 3 3 2 2 2 2 3 4 5 4 5 5 6 5 6 8 10 12 15 14 14 13 14 15 15 13 12 11 10
5 5 5 5 5 5 5 6 6 6 5 5 4 2 2 1 2 2 4 3 3 3 4 5 4 4 5 5 5 7 10 12 14 14 14 13 13 13 12 13 12 11 10
3 4 4 4 4 4 5 6 6 7 5 5 4 3 3 3 2 2 3 4 4 4 4 4 4 4 4 4 6 8 10 11 12 12 12 11 13 13 12 11 11 10 10
3 4 4 4 4 4 4 4 4 5 6 6 5 4 3 3 3 2 3 3 4 4 3 3 3 3 4 3 4 7 9 11 11 11 11 10 11 11 11 10 11 10 10
4 4 4 4 4 4 4 4 3 4 4 5 5 4 3 3 3 3 3 3 4 4 3 5 2 3 3 3 5 7 6 10 11 11 10 10 9 9 9 9 9 10 9
3 4 4 4 4 4 4 4 3 4 4 4 4 4 3 3 3 3 3 4 4 5 6 4 3 3 3 3 5 4 5 9 11 10 10 10 9 9 9 8 7 8 8
4 3 3 3 3 3 3 4 4 4 4 4 3 3 3 2 2 2 3 3 3 4 6 4 4 3 3 3 5 4 6 9 10 11 10 9 9 9 9 8 7 7 7
3 3 3 3 3 3 3 3 3 3 4 3 3 3 4 3 3 2 2 3 3 3 6 5 3 3 3 4 4 4 4 5 5 9 10 9 8 8 8 8 7 6 6
2 2 3 3 3 3 3 3 3 3 4 4 4 3 4 3 3 3 3 3 4 4 4 6 4 3 3 4 3 4 4 4 4 6 8 8 8 8 8 7 7 5 5
1 1 2 2 2 2 2 3 3 3 3 4 3 4 4 3 3 3 3 3 3 4 3 4 4 3 2 2 2 2 3 3 3 3 5 6 7 7 6 6 6 5 5
1 1 1 1 1 2 2 2 2 3 3 3 3 3 3 4 4 3 3 3 3 3 3 3 3 3 2 2 1 1 2 2 2 2 3 3 3 4 6 6 6 5 4
0 1 1 1 1 1 1 1 2 2 3 3 3 3 3 4 4 4 3 2 3 3 2 3 3 2 2 1 2 1 2 2 2 1 1 1 1 2 3 5 5 5 4
0 0 1 1 0 1 1 2 2 2 2 2 2 2 2 3 4 5 6 6 5 4 4 3 3 3 4 3 2 2 2 1 2 1 1 1 1 2 2 2 3 3 3
1 1 1 1 1 1 2 2 2 1 0 1 1 1 2 2 3 2 4 6 6 7 6 5 4 4 4 4 3 3 2 2 3 1 0 1 0 1 1 2 3 3 3
1 1 1 1 1 1 2 3 3 1 0 0 1 2 2 2 2 2 2 2 3 3 4 3 3 4 3 3 4 4 3 1 0 1 1 1 0 0 1 0 3 3 2
2 1 1 1 1 2 3 3 3 0 0 1 1 1 1 2 3 4 2 2 3 3 3 3 3 2 3 4 3 2 2 1 1 1 0 1 1 1 1 1 1 2 1
2 2 2 1 1 2 3 4 4 0 0 1 2 2 3 3 4 4 2 2 2 3 2 3 2 3 2 1 2 2 3 3 1 1 1 1 1 1 1 1 1 0 0
Wind_Direction
237 235 235 223 212 201 199 207 203 202 207 215 215 214 226 226 221 219 224 218 220 223 225 222 218 217 214 212 211 210 207 207 206 205 207 207 210 214 218 226 238 249 260
224 227 229 224 215 203 199 204 209 202 206 210 219 218 224 225 224 223 228 223 223 225 229 228 226 225 222 220 218 215 211 210 210 211 212 213 215 219 223 230 238 248 258
221 220 222 228 221 207 201 204 211 200 208 214 223 221 218 223 222 218 220 224 226 226 231 236 235 234 232 228 225 221 215 214 214 214 216 217 219 221 225 230 237 244 253
224 220 220 229 227 209 198 200 201 196 204 207 221 228 221 224 225 223 219 221 226 231 233 239 241 241 237 234 232 229 223 219 218 217 218 219 221 223 227 232 236 242 248
229 222 225 225 225 213 206 211 204 192 197 209 223 234 228 229 229 227 225 223 223 224 230 239 242 244 244 242 239 235 231 227 224 222 221 221 222 224 227 232 236 241 245
230 229 229 222 218 215 209 208 206 199 191 196 224 251 246 241 235 219 224 228 223 226 229 237 237 246 246 248 247 243 239 236 233 229 226 224 223 225 227 231 234 239 243
232 231 238 224 216 215 210 205 195 197 190 169 153 305 305 265 240 229 223 225 230 230 225 228 227 234 245 247 248 248 247 244 241 236 232 229 226 225 226 229 232 236 241
232 236 230 227 221 216 209 201 187 188 193 173 157 162 297 306 272 245 224 222 231 228 229 230 228 231 233 236 244 248 253 250 250 244 239 234 231 228 227 228 229 233 239
235 231 232 227 227 216 207 200 195 188 192 190 176 176 186 227 285 268 245 237 226 226 228 228 228 228 231 233 241 247 252 256 253 251 246 243 238 231 227 227 229 232 236
243 235 231 226 226 222 211 202 200 192 184 190 198 217 211 194 215 282 287 259 251 240 233 235 230 230 230 229 235 244 250 254 253 254 252 248 248 236 229 225 227 231 236
245 241 230 224 224 223 217 207 197 197 192 192 194 208 226 242 214 231 273 283 279 258 241 233 231 230 231 230 233 242 249 253 254 253 255 251 249 241 237 230 226 230 234
250 242 232 223 225 224 215 210 202 200 201 196 195 201 203 212 214 216 255 271 274 279 269 247 234 232 233 234 242 247 249 251 254 254 254 253 253 245 240 235 229 230 235
255 243 236 220 221 221 215 210 204 206 201 196 198 212 218 227 219 220 238 263 275 282 280 271 241 230 235 233 243 249 249 249 250 251 251 251 249 243 239 239 231 228 235
243 239 233 223 224 218 216 202 201 210 207 203 212 214 221 229 223 218 216 234 273 281 270 266 266 233 233 231 244 248 252 250 248 248 244 242 240 240 236 234 231 225 230
243 230 228 226 225 219 211 197 203 206 203 207 214 217 225 238 238 234 219 211 228 262 269 257 259 253 238 235 247 246 249 253 250 246 240 235 233 233 227 221 227 225 226
236 221 219 220 225 216 205 203 199 198 198 206 207 208 223 236 242 241 230 231 231 241 263 260 251 251 251 259 258 252 249 257 252 247 239 234 231 227 220 215 218 220 216
230 218 215 217 223 220 209 202 201 191 193 210 219 218 234 235 238 243 239 241 245 238 258 274 261 250 247 257 272 266 257 251 251 241 237 234 231 226 216 208 206 206 207
229 215 206 209 218 217 206 199 200 197 195 210 222 221 238 244 244 243 241 244 245 241 244 267 277 266 254 251 260 268 272 264 254 246 240 238 232 225 214 203 194 190 200
219 209 190 197 214 215 209 207 195 197 203 212 222 225 236 235 250 251 248 250 255 256 237 246 268 276 272 266 270 287 286 276 273 262 250 241 229 218 206 194 187 186 197
180 190 191 194 199 210 218 211 199 199 204 220 229 230 236 236 237 247 254 250 253 259 242 245 262 266 262 264 241 273 299 299 293 301 270 251 222 205 198 191 188 185 191
166 176 157 158 190 206 223 204 195 209 213 224 234 235 240 247 252 260 266 264 253 252 250 251 258 263 258 253 246 247 266 298 306 289 275 252 206 202 195 191 188 182 187
48 120 126 141 199 269 278 274 262 224 218 215 235 256 263 271 276 280 278 277 265 255 248 248 253 246 253 248 237 230 240 279 291 296 273 267 171 203 213 192 182 176 191
30 56 67 76 52 356 305 303 315 295 201 217 239 261 290 301 307 306 295 290 283 269 259 249 243 241 239 230 216 231 237 240 252 255 191 272 172 210 211 184 174 178 192
38 43 37 33 21 340 325 328 340 351 25 307 266 241 248 282 279 286 294 300 294 288 276 267 246 247 244 226 214 217 219 222 336 355 127 194 309 342 355 182 185 191 202
18 15 15 21 360 326 326 325 329 62 22 320 301 286 274 267 276 292 294 297 301 303 315 296 278 262 245 235 217 179 173 160 257 273 101 125 85 12 356 292 222 200 183
356 358 353 342 328 312 318 325 325 119 279 302 308 295 287 282 281 291 275 246 270 288 309 334 347 347 322 290 260 212 192 185 191 230 205 131 123 71 3 327 320 262 171